Погода в Верещагино

Россия / Пермский край     58°04′47″N   54°39′29″E
темп.,
°C
ветер,
м/с
пор.,
м/с
влажн.,
%
обл.,
%
осадки,
мм/ч
давл.,
гПа
погр.,
м
18 мая, вт
вт1823:00+18зсз26650 0.0 1015130
02:00+15сз267648 0.0 1017135
05:00+13сз38915 0.0 1018202
08:00+15с46733 0.0 1019513
11:00+19ссв465832 0.0 10191237
14:00+21с455027 0.0 10201639
17:00+22ссв45413 0.0 10201811
20:00+19всв36521 0.0 1021449
19 мая, ср
ср1923:00+14всв24692 0.0 102275
02:00+12вюв24875 0.0 102375
05:00+10вюв26935 0.0 1024129
08:00+14вюв366539 0.0 1025403
11:00+18вюв3444100 0.0 1024924
14:00+21вюв3435100 0.0 10231297
17:00+22юв3332100 0.0 10231404
20:00+19юв2350100 0.0 102251
20 мая, чт
чт2023:00+14юв22645 0.0 102324
02:00+12юв22670 0.0 102312
05:00+11юв22690 0.0 102412
08:00+16ююв23540 0.0 1023198
11:00+22ююв23370 0.0 10231014
14:00+25ю33290 0.0 10221680
17:00+25ююз33290 0.0 10211741
20:00+22ю11450 0.0 102013
21 мая, пт
пт2123:00+17ююз410630 0.0 1021243
02:00+14ююз23700 0.0 102146
05:00+13ю22735 0.0 102233
08:00+18ю36555 0.0 1021263
11:00+23ююз59385 0.0 10211677
14:00+25ююз69312 0.0 10202242
17:00+25ююз68300 0.0 10192372
20:00+22ююз410430 0.0 1019691
22 мая, сб
сб2223:00+17ю311610 0.0 1019234
02:00+15ююз396758 0.0 1019192
05:00+14ююз31084100 0.0 1020231
08:00+18юз41070100 0.0 1020527
11:00+21юз6105287 0.0 10201661
14:00+23зюз61041100 0.1 10192381
17:00+23з51141100 0.1 10202360
20:00+17зсз4762100 0.1 1021483